SRR6381 LFML-EDDK

Flight info

Callsign SRR6381
Flight time 1h 32m
Altitude 29000
Route NASIK P856 RAPED/N0492F300 DCT PIGOS DCT EKSID DCT NOSTA DCT NOPMU DCT ASTIG DCT ABESI DCT LADOL DCT ABUKA DCT ASKIK DCT DILUG T840 GULKO GULKO1F
Aircraft B77L/H-SDE1E2E3FGHIJ2J3J4J5M1RWXY/LB1D1

Departure

Time 2026-04-22 18:38
Airport Marseille Provence Airport (LFML)

Arrival

Time 2026-04-22 20:10
Airport Cologne Bonn Airport (EDDK)
Time Latitude Longitude Altitude Speed Heading
2026-04-22 18:09 43.44210 5.21419 30 ft 0 kts 314°
2026-04-22 18:31 43.44222 5.21403 29 ft 8 kts 314°
2026-04-22 18:31 43.44253 5.21317 28 ft 11 kts 255°
2026-04-22 18:31 43.44220 5.21220 28 ft 11 kts 242°
2026-04-22 18:32 43.44163 5.21165 28 ft 11 kts 166°
2026-04-22 18:32 43.44101 5.21229 30 ft 11 kts 135°
2026-04-22 18:32 43.44046 5.21306 32 ft 11 kts 134°
2026-04-22 18:32 43.43981 5.21399 35 ft 17 kts 134°
2026-04-22 18:33 43.43926 5.21540 38 ft 18 kts 78°
2026-04-22 18:33 43.43974 5.21687 39 ft 18 kts 103°
2026-04-22 18:33 43.43898 5.21817 42 ft 18 kts 134°
2026-04-22 18:33 43.43813 5.21940 45 ft 18 kts 134°
2026-04-22 18:34 43.43718 5.22045 48 ft 18 kts 149°
2026-04-22 18:34 43.43611 5.22129 45 ft 18 kts 150°
2026-04-22 18:34 43.43505 5.22214 51 ft 18 kts 149°
2026-04-22 18:34 43.43394 5.22286 50 ft 18 kts 164°
2026-04-22 18:35 43.43293 5.22377 54 ft 18 kts 135°
2026-04-22 18:35 43.43205 5.22502 56 ft 20 kts 134°
2026-04-22 18:35 43.43095 5.22659 59 ft 23 kts 134°
2026-04-22 18:35 43.42982 5.22821 65 ft 23 kts 134°
2026-04-22 18:36 43.42881 5.22956 67 ft 12 kts 148°
2026-04-22 18:36 43.42804 5.22924 68 ft 12 kts 218°
2026-04-22 18:36 43.42763 5.22809 67 ft 16 kts 289°
2026-04-22 18:36 43.42819 5.22715 65 ft 0 kts 313°
2026-04-22 18:37 43.42848 5.22673 63 ft 22 kts 313°
2026-04-22 18:37 43.42993 5.22466 62 ft 69 kts 314°
2026-04-22 18:37 43.43708 5.21450 42 ft 150 kts 314°
2026-04-22 18:38 43.44540 5.20257 61 ft 190 kts 313°
2026-04-22 18:38 43.45415 5.18938 599 ft 183 kts 314°
2026-04-22 18:38 43.46321 5.17651 1018 ft 197 kts 316°
2026-04-22 18:39 43.48626 5.15271 1744 ft 221 kts 351°
2026-04-22 18:39 43.50097 5.15461 2400 ft 211 kts 27°
2026-04-22 18:39 43.51191 5.16719 2952 ft 207 kts 56°
2026-04-22 18:39 43.51870 5.18495 3449 ft 213 kts 75°
2026-04-22 18:40 43.51975 5.20581 3769 ft 222 kts 93°
2026-04-22 18:40 43.51902 5.22715 4375 ft 224 kts 90°
2026-04-22 18:40 43.51894 5.24831 5014 ft 225 kts 89°
2026-04-22 18:40 43.51873 5.27006 5531 ft 232 kts 94°
2026-04-22 18:41 43.51642 5.29323 5741 ft 256 kts 98°
2026-04-22 18:41 43.51344 5.31818 6192 ft 270 kts 98°
2026-04-22 18:41 43.51042 5.34422 6785 ft 278 kts 96°
2026-04-22 18:41 43.50722 5.37071 7438 ft 284 kts 101°
2026-04-22 18:42 43.50147 5.39701 8134 ft 289 kts 107°
2026-04-22 18:42 43.49440 5.42327 8779 ft 296 kts 108°
2026-04-22 18:42 43.48703 5.44999 9457 ft 301 kts 108°
2026-04-22 18:42 43.47961 5.47729 10106 ft 307 kts 107°
2026-04-22 18:43 43.47212 5.50531 10547 ft 319 kts 107°
2026-04-22 18:43 43.46424 5.53521 10712 ft 344 kts 107°
2026-04-22 18:43 43.45586 5.56721 10904 ft 367 kts 108°
2026-04-22 18:43 43.44705 5.60095 11135 ft 389 kts 108°
2026-04-22 18:44 43.43772 5.63663 11663 ft 401 kts 108°
2026-04-22 18:44 43.42813 5.67327 12339 ft 411 kts 108°
2026-04-22 18:44 43.41873 5.71059 13079 ft 414 kts 104°
2026-04-22 18:44 43.41481 5.75006 13646 ft 419 kts 84°
2026-04-22 18:45 43.41982 5.78928 14423 ft 415 kts 67°
2026-04-22 18:45 43.42988 5.82628 15146 ft 415 kts 64°
2026-04-22 18:45 43.44015 5.86378 15843 ft 420 kts 65°
2026-04-22 18:45 43.45028 5.90172 16634 ft 424 kts 65°
2026-04-22 18:46 43.46038 5.94003 17425 ft 427 kts 65°
2026-04-22 18:46 43.47053 5.97873 18180 ft 432 kts 66°
2026-04-22 18:46 43.48074 6.01780 18843 ft 436 kts 66°
2026-04-22 18:46 43.49092 6.05689 19472 ft 441 kts 66°
2026-04-22 18:47 43.50129 6.09680 20131 ft 444 kts 66°
2026-04-22 18:47 43.51215 6.13690 20760 ft 448 kts 64°
2026-04-22 18:47 43.52353 6.17712 21358 ft 452 kts 64°
2026-04-22 18:47 43.53476 6.21730 21943 ft 457 kts 64°
2026-04-22 18:48 43.54596 6.25849 22552 ft 461 kts 65°
2026-04-22 18:48 43.55700 6.30027 23136 ft 466 kts 65°
2026-04-22 18:48 43.56796 6.34261 23716 ft 470 kts 66°
2026-04-22 18:48 43.57534 6.37145 24040 ft 473 kts 66°
2026-04-22 18:49 43.58625 6.41442 24555 ft 476 kts 66°
2026-04-22 18:49 43.59704 6.45709 25081 ft 478 kts 66°
2026-04-22 18:49 43.60803 6.50063 25583 ft 482 kts 66°
2026-04-22 18:49 43.61910 6.54451 26057 ft 486 kts 66°
2026-04-22 18:50 43.63023 6.58869 26551 ft 489 kts 66°
2026-04-22 18:50 43.64143 6.63316 27038 ft 492 kts 66°
2026-04-22 18:50 43.65272 6.67805 27482 ft 495 kts 66°
2026-04-22 18:50 43.66406 6.72321 27896 ft 499 kts 66°
2026-04-22 18:51 43.67734 6.76702 28209 ft 492 kts 54°
2026-04-22 18:51 43.69900 6.80278 28513 ft 482 kts 34°
2026-04-22 18:51 43.72538 6.82956 28921 ft 477 kts 30°
2026-04-22 18:51 43.75275 6.85590 29304 ft 480 kts 28°
2026-04-22 18:52 43.78092 6.88107 29666 ft 482 kts 26°
2026-04-22 18:52 43.80951 6.90557 30061 ft 483 kts 26°
2026-04-22 18:52 43.83822 6.92985 30528 ft 483 kts 26°
2026-04-22 18:52 43.86677 6.95405 31151 ft 478 kts 26°
2026-04-22 18:53 43.89490 6.97812 31757 ft 473 kts 26°
2026-04-22 18:53 43.92273 7.00212 32338 ft 469 kts 26°
2026-04-22 18:53 43.95033 7.02606 32891 ft 466 kts 25°
2026-04-22 18:53 43.97779 7.04996 33292 ft 465 kts 26°
2026-04-22 18:54 44.00508 7.07379 33768 ft 462 kts 26°
2026-04-22 18:54 44.03190 7.09726 34238 ft 457 kts 26°
2026-04-22 18:54 44.08534 7.14408 34188 ft 453 kts 25°
2026-04-22 18:55 44.13891 7.19101 34214 ft 458 kts 25°
2026-04-22 18:55 44.19312 7.23857 34228 ft 462 kts 25°
2026-04-22 18:56 44.24730 7.28635 34238 ft 457 kts 25°
2026-04-22 18:56 44.30115 7.33391 34218 ft 462 kts 25°
2026-04-22 18:57 44.35573 7.38220 34216 ft 465 kts 25°
2026-04-22 18:57 44.41041 7.43071 34237 ft 464 kts 25°
2026-04-22 18:58 44.46482 7.47911 34219 ft 462 kts 25°
2026-04-22 18:58 44.51869 7.52712 34181 ft 460 kts 25°
2026-04-22 18:59 44.57300 7.57562 34187 ft 458 kts 25°
2026-04-22 18:59 44.62649 7.62348 34198 ft 458 kts 25°
2026-04-22 19:00 44.68026 7.67168 34192 ft 458 kts 25°
2026-04-22 19:00 44.73404 7.72001 34208 ft 459 kts 25°
2026-04-22 19:01 44.78797 7.76860 34196 ft 461 kts 25°
2026-04-22 19:01 44.84201 7.81739 34199 ft 462 kts 25°
2026-04-22 19:02 44.89618 7.86641 34191 ft 463 kts 25°
2026-04-22 19:02 44.95015 7.91537 34201 ft 464 kts 25°
2026-04-22 19:03 45.00451 7.96479 34188 ft 464 kts 25°
2026-04-22 19:03 45.05892 8.01439 34188 ft 464 kts 25°
2026-04-22 19:04 45.11286 8.06366 34207 ft 463 kts 25°
2026-04-22 19:04 45.16713 8.11334 34188 ft 463 kts 25°
2026-04-22 19:05 45.22123 8.16297 34187 ft 462 kts 25°
2026-04-22 19:05 45.27522 8.21262 34181 ft 461 kts 25°
2026-04-22 19:06 45.32875 8.26196 34190 ft 461 kts 25°
2026-04-22 19:07 45.40953 8.33663 34195 ft 461 kts 25°
2026-04-22 19:07 45.46340 8.38657 34194 ft 462 kts 25°
2026-04-22 19:08 45.51729 8.43664 34188 ft 463 kts 25°
2026-04-22 19:08 45.57136 8.48699 34164 ft 464 kts 25°
2026-04-22 19:09 45.62505 8.53711 34164 ft 464 kts 25°
2026-04-22 19:09 45.67916 8.58774 34171 ft 465 kts 25°
2026-04-22 19:10 45.73334 8.63857 34186 ft 466 kts 25°
2026-04-22 19:10 45.78772 8.68969 34183 ft 467 kts 25°
2026-04-22 19:11 45.84207 8.74092 34203 ft 467 kts 26°
2026-04-22 19:11 45.89611 8.79196 34170 ft 468 kts 26°
2026-04-22 19:12 45.95059 8.84355 34165 ft 469 kts 26°
2026-04-22 19:12 46.00518 8.89538 34146 ft 469 kts 26°
2026-04-22 19:13 46.05955 8.94710 34172 ft 468 kts 27°
2026-04-22 19:13 46.11398 8.99897 34172 ft 468 kts 26°
2026-04-22 19:13 46.14254 9.02070 34168 ft 460 kts 15°
2026-04-22 19:14 46.17256 9.03404 34178 ft 455 kts
2026-04-22 19:14 46.23491 9.04152 34166 ft 447 kts 354°
2026-04-22 19:15 46.28663 9.03855 34175 ft 448 kts 354°
2026-04-22 19:15 46.35929 9.03449 34175 ft 449 kts 354°
2026-04-22 19:16 46.42189 9.03147 34205 ft 450 kts 355°
2026-04-22 19:16 46.48464 9.02870 34196 ft 451 kts 355°
2026-04-22 19:17 46.54737 9.02599 34187 ft 450 kts 355°
2026-04-22 19:17 46.60949 9.02332 34197 ft 449 kts 355°
2026-04-22 19:18 46.67204 9.02058 34194 ft 449 kts 355°
2026-04-22 19:18 46.73458 9.01782 34196 ft 449 kts 355°
2026-04-22 19:19 46.79714 9.01506 34188 ft 448 kts 355°
2026-04-22 19:19 46.85954 9.01231 34197 ft 450 kts 355°
2026-04-22 19:20 46.92183 9.00953 34202 ft 451 kts 355°
2026-04-22 19:20 46.98472 9.00675 34194 ft 451 kts 355°
2026-04-22 19:21 47.04752 9.00394 34232 ft 451 kts 356°
2026-04-22 19:21 47.11055 9.00114 34217 ft 453 kts 356°
2026-04-22 19:22 47.17329 8.99834 34240 ft 454 kts 356°
2026-04-22 19:22 47.23671 8.99550 34236 ft 455 kts 356°
2026-04-22 19:23 47.30010 8.99265 34252 ft 456 kts 356°
2026-04-22 19:23 47.36367 8.98981 34243 ft 457 kts 356°
2026-04-22 19:24 47.42687 8.98692 34249 ft 457 kts 356°
2026-04-22 19:24 47.49052 8.98403 34243 ft 458 kts 357°
2026-04-22 19:25 47.55467 8.98113 34253 ft 459 kts 357°
2026-04-22 19:25 47.61820 8.97825 34247 ft 459 kts 357°
2026-04-22 19:26 47.68213 8.97534 34263 ft 460 kts 358°
2026-04-22 19:26 47.74611 8.97241 34266 ft 460 kts 358°
2026-04-22 19:27 47.81026 8.96947 34265 ft 461 kts 358°
2026-04-22 19:27 47.87441 8.96653 34281 ft 461 kts 358°
2026-04-22 19:28 47.93868 8.96357 34273 ft 462 kts 358°
2026-04-22 19:28 48.00303 8.96060 34279 ft 462 kts 358°
2026-04-22 19:29 48.06736 8.95763 34270 ft 462 kts 358°
2026-04-22 19:29 48.13137 8.95466 34280 ft 462 kts 358°
2026-04-22 19:30 48.18481 8.95019 34281 ft 462 kts 353°
2026-04-22 19:30 48.25943 8.93466 34287 ft 463 kts 352°
2026-04-22 19:31 48.32331 8.92094 34296 ft 464 kts 352°
2026-04-22 19:31 48.38697 8.90755 34288 ft 465 kts 352°
2026-04-22 19:32 48.45120 8.89419 34287 ft 465 kts 353°
2026-04-22 19:32 48.51546 8.88083 34292 ft 465 kts 353°
2026-04-22 19:33 48.57932 8.86751 34286 ft 465 kts 352°
2026-04-22 19:33 48.64356 8.85407 34293 ft 465 kts 352°
2026-04-22 19:34 48.69691 8.84288 34294 ft 465 kts 352°
2026-04-22 19:34 48.76114 8.82937 34289 ft 465 kts 353°
2026-04-22 19:35 48.82536 8.81583 34291 ft 466 kts 353°
2026-04-22 19:35 48.88971 8.80222 34292 ft 467 kts 353°
2026-04-22 19:36 48.95366 8.78867 34267 ft 467 kts 353°
2026-04-22 19:36 49.01816 8.77496 34286 ft 467 kts 353°
2026-04-22 19:37 49.08262 8.76123 34293 ft 467 kts 353°
2026-04-22 19:37 49.14680 8.74752 34288 ft 468 kts 353°
2026-04-22 19:38 49.21135 8.73369 34291 ft 468 kts 353°
2026-04-22 19:38 49.27602 8.71980 34305 ft 468 kts 353°
2026-04-22 19:39 49.34013 8.70600 34306 ft 468 kts 353°
2026-04-22 19:39 49.40467 8.69207 34317 ft 468 kts 353°
2026-04-22 19:40 49.46925 8.67808 34321 ft 468 kts 353°
2026-04-22 19:40 49.53365 8.66275 34318 ft 468 kts 353°
2026-04-22 19:41 49.59793 8.64672 34315 ft 468 kts 353°
2026-04-22 19:41 49.62970 8.63882 34184 ft 470 kts 353°
2026-04-22 19:41 49.66219 8.63079 33400 ft 473 kts 353°
2026-04-22 19:41 49.69466 8.62279 32588 ft 471 kts 353°
2026-04-22 19:42 49.72696 8.61483 31827 ft 468 kts 353°
2026-04-22 19:42 49.75887 8.60697 31092 ft 466 kts 353°
2026-04-22 19:42 49.79106 8.59903 30351 ft 464 kts 353°
2026-04-22 19:42 49.82287 8.59117 29501 ft 462 kts 353°
2026-04-22 19:43 49.88610 8.57552 27841 ft 458 kts 354°
2026-04-22 19:43 49.91756 8.56771 27051 ft 457 kts 354°
2026-04-22 19:43 49.94891 8.55993 26298 ft 455 kts 354°
2026-04-22 19:44 49.97991 8.55221 25525 ft 444 kts 354°
2026-04-22 19:44 50.01000 8.54468 24841 ft 429 kts 354°
2026-04-22 19:44 50.03829 8.53657 24565 ft 408 kts 350°
2026-04-22 19:44 50.06512 8.52464 24368 ft 395 kts 345°
2026-04-22 19:45 50.09049 8.50894 24331 ft 391 kts 339°
2026-04-22 19:45 50.11544 8.49152 24316 ft 393 kts 339°
2026-04-22 19:45 50.14042 8.47411 24317 ft 393 kts 339°
2026-04-22 19:45 50.16539 8.45674 24317 ft 393 kts 339°
2026-04-22 19:46 50.19036 8.43940 24316 ft 392 kts 340°
2026-04-22 19:46 50.21530 8.42210 24317 ft 392 kts 340°
2026-04-22 19:46 50.24021 8.40483 24319 ft 394 kts 340°
2026-04-22 19:46 50.26575 8.38718 24338 ft 409 kts 340°
2026-04-22 19:47 50.29156 8.36926 24325 ft 401 kts 339°
2026-04-22 19:47 50.31676 8.35169 24159 ft 394 kts 340°
2026-04-22 19:47 50.34186 8.33422 23623 ft 395 kts 340°
2026-04-22 19:47 50.36675 8.31689 22911 ft 394 kts 339°
2026-04-22 19:48 50.39165 8.29951 22213 ft 385 kts 339°
2026-04-22 19:48 50.41550 8.28159 21544 ft 377 kts 334°
2026-04-22 19:48 50.43768 8.26009 20895 ft 371 kts 330°
2026-04-22 19:48 50.45915 8.23810 20277 ft 367 kts 330°
2026-04-22 19:49 50.48044 8.21631 19654 ft 362 kts 330°
2026-04-22 19:49 50.50139 8.19497 19033 ft 356 kts 330°
2026-04-22 19:49 50.52202 8.17405 18401 ft 351 kts 330°
2026-04-22 19:49 50.54244 8.15338 17732 ft 346 kts 330°
2026-04-22 19:50 50.56261 8.13296 17081 ft 344 kts 330°
2026-04-22 19:50 50.58251 8.11280 16440 ft 344 kts 330°
2026-04-22 19:50 50.60267 8.09236 15802 ft 344 kts 330°
2026-04-22 19:50 50.62272 8.07206 15194 ft 342 kts 330°
2026-04-22 19:51 50.64272 8.05184 14568 ft 340 kts 330°
2026-04-22 19:51 50.66261 8.03173 13943 ft 337 kts 330°
2026-04-22 19:51 50.68232 8.01178 13275 ft 335 kts 330°
2026-04-22 19:51 50.70191 7.99194 12621 ft 333 kts 330°
2026-04-22 19:52 50.72134 7.97222 11983 ft 331 kts 330°
2026-04-22 19:52 50.74075 7.95250 11542 ft 326 kts 329°
2026-04-22 19:52 50.75853 7.92995 11345 ft 333 kts 311°
2026-04-22 19:52 50.77110 7.89929 11344 ft 333 kts 303°
2026-04-22 19:53 50.78311 7.86824 11338 ft 335 kts 304°
2026-04-22 19:53 50.79562 7.83713 11334 ft 334 kts 305°
2026-04-22 19:53 50.80803 7.80657 11322 ft 326 kts 305°
2026-04-22 19:53 50.82021 7.77663 11318 ft 320 kts 305°
2026-04-22 19:54 50.83222 7.74711 11331 ft 318 kts 305°
2026-04-22 19:54 50.84404 7.71801 11331 ft 318 kts 305°
2026-04-22 19:54 50.85603 7.68843 11340 ft 318 kts 305°
2026-04-22 19:54 50.86797 7.65888 11347 ft 318 kts 305°
2026-04-22 19:55 50.87990 7.62932 11349 ft 319 kts 305°
2026-04-22 19:55 50.89186 7.59965 11351 ft 319 kts 305°
2026-04-22 19:55 50.90377 7.57007 11351 ft 319 kts 305°
2026-04-22 19:55 50.91572 7.54039 11343 ft 318 kts 305°
2026-04-22 19:56 50.92748 7.51107 11214 ft 312 kts 305°
2026-04-22 19:56 50.93899 7.48238 11026 ft 304 kts 305°
2026-04-22 19:56 50.95002 7.45482 10824 ft 296 kts 305°
2026-04-22 19:56 50.96101 7.42740 10495 ft 292 kts 305°
2026-04-22 19:57 50.97191 7.40017 10074 ft 291 kts 305°
2026-04-22 19:57 50.98274 7.37310 9670 ft 290 kts 305°
2026-04-22 19:57 50.99352 7.34609 9285 ft 288 kts 305°
2026-04-22 19:57 51.00421 7.31930 8910 ft 286 kts 304°
2026-04-22 19:58 51.01483 7.29262 8524 ft 285 kts 304°
2026-04-22 19:58 51.02539 7.26610 8154 ft 283 kts 304°
2026-04-22 19:58 51.03589 7.23970 7794 ft 282 kts 304°
2026-04-22 19:58 51.04631 7.21347 7434 ft 280 kts 304°
2026-04-22 19:59 51.05667 7.18734 7066 ft 278 kts 303°
2026-04-22 20:00 51.04383 7.02772 5038 ft 240 kts 223°
2026-04-22 20:00 51.03193 7.00908 4612 ft 239 kts 223°
2026-04-22 20:01 51.02018 6.99056 4245 ft 237 kts 223°
2026-04-22 20:01 51.00871 6.97243 4018 ft 233 kts 223°
2026-04-22 20:01 50.99714 6.95411 4040 ft 237 kts 223°
2026-04-22 20:01 50.98539 6.93553 4029 ft 238 kts 223°
2026-04-22 20:02 50.97369 6.91706 4013 ft 237 kts 223°
2026-04-22 20:02 50.96204 6.89869 4021 ft 235 kts 223°
2026-04-22 20:02 50.95041 6.88038 4024 ft 235 kts 223°
2026-04-22 20:02 50.93930 6.86149 4008 ft 232 kts 236°
2026-04-22 20:03 50.93430 6.83726 4039 ft 237 kts 270°
2026-04-22 20:03 50.93823 6.81188 4035 ft 241 kts 303°
2026-04-22 20:03 50.94951 6.79259 4028 ft 238 kts 327°
2026-04-22 20:03 50.96456 6.78301 4022 ft 233 kts 359°
2026-04-22 20:04 50.98004 6.78750 4008 ft 223 kts 32°
2026-04-22 20:04 50.99136 6.80319 3947 ft 213 kts 52°
2026-04-22 20:04 51.00051 6.82091 3974 ft 207 kts 52°
2026-04-22 20:04 51.00957 6.83858 3909 ft 203 kts 53°
2026-04-22 20:05 51.01831 6.85565 3640 ft 196 kts 53°
2026-04-22 20:05 51.02677 6.87217 3369 ft 189 kts 54°
2026-04-22 20:05 51.03183 6.89015 3064 ft 173 kts 93°
2026-04-22 20:05 51.02759 6.90757 3016 ft 176 kts 130°
2026-04-22 20:06 51.01950 6.92239 3005 ft 179 kts 127°
2026-04-22 20:06 51.01143 6.93743 3007 ft 178 kts 132°
2026-04-22 20:06 51.00253 6.95125 3005 ft 180 kts 135°
2026-04-22 20:06 50.99341 6.96474 3001 ft 179 kts 135°
2026-04-22 20:07 50.98433 6.97801 2998 ft 180 kts 135°
2026-04-22 20:07 50.97496 6.99166 2805 ft 184 kts 135°
2026-04-22 20:07 50.96558 7.00529 2542 ft 180 kts 134°
2026-04-22 20:07 50.95643 7.01861 2297 ft 177 kts 134°
2026-04-22 20:08 50.94741 7.03176 2059 ft 175 kts 134°
2026-04-22 20:08 50.93845 7.04479 1822 ft 175 kts 134°
2026-04-22 20:08 50.92964 7.05758 1563 ft 165 kts 133°
2026-04-22 20:08 50.92151 7.06940 1365 ft 153 kts 133°
2026-04-22 20:09 50.91370 7.08081 1175 ft 153 kts 134°
2026-04-22 20:09 50.90572 7.09237 946 ft 156 kts 134°
2026-04-22 20:09 50.89762 7.10414 738 ft 160 kts 136°
2026-04-22 20:09 50.88944 7.11597 524 ft 159 kts 137°
2026-04-22 20:10 50.88137 7.12787 314 ft 157 kts 136°
2026-04-22 20:10 50.87369 7.13892 253 ft 136 kts 138°
2026-04-22 20:10 50.86783 7.14741 262 ft 92 kts 137°
2026-04-22 20:10 50.86454 7.15207 272 ft 46 kts 144°
2026-04-22 20:11 50.86249 7.15325 279 ft 30 kts 168°
2026-04-22 20:11 50.86113 7.15348 280 ft 18 kts 196°
2026-04-22 20:11 50.86049 7.15195 280 ft 18 kts 271°
2026-04-22 20:11 50.86114 7.15036 279 ft 18 kts 316°
2026-04-22 20:12 50.86212 7.14888 275 ft 20 kts 316°
2026-04-22 20:12 50.86316 7.14745 271 ft 20 kts 318°
2026-04-22 20:12 50.86385 7.14643 269 ft 21 kts 317°
2026-04-22 20:12 50.86530 7.14434 262 ft 22 kts 318°
2026-04-22 20:13 50.86632 7.14285 262 ft 15 kts 316°
2026-04-22 20:13 50.86681 7.14213 260 ft 1 kts 318°
2026-04-22 20:13 50.86685 7.14208 260 ft 0 kts 318°
2026-04-22 20:13 50.86691 7.14199 260 ft 3 kts 318°
2026-04-22 20:14 50.86718 7.14161 258 ft 7 kts 318°
2026-04-22 20:14 50.86772 7.14127 255 ft 10 kts 336°
2026-04-22 20:14 50.86836 7.14050 251 ft 12 kts 319°
2026-04-22 20:14 50.86841 7.13976 249 ft 8 kts 240°
2026-04-22 20:15 50.86823 7.13938 249 ft 5 kts 231°
2026-04-22 20:15 50.86803 7.13902 249 ft 0 kts 227°